Regional Weather Roundup
Issued by NWS

Home | Current Version | Previous Version | Text Only | Print | Product List | Glossary Off
Versions: 1 2 3 4 5 6 7 8 9 10 11 12 13 14 15 16 17 18 19 20 21 22 23 24 25 26 27 28 29 30 31 32 33 34 35 36 37 38 39 40 41 42 43 44 45 46 47 48 49 50

594
ASUS44 KLIX 251605
RWRLA
LOUISIANA WEATHER ROUNDUP
NATIONAL WEATHER SERVICE NEW ORLEANS LA
1000 AM CST TUE NOV 25 2014

NOTE: "FAIR" INDICATES FEW OR NO CLOUDS BELOW 12,000 FEET WITH NO
      SIGNIFICANT WEATHER AND/OR OBSTRUCTIONS TO VISIBILITY.
      SKY/WX - SKY CONDITION AND SIGNIFICANT WEATHER.
      TMP - AIR TEMPERATURE.    DP   - DEWPOINT TEMPERATURE.
      RH  - RELATIVE HUMIDITY.  PRES - PRESSURE.
      HX  - HEAT INDEX.         WCI  - WIND CHILL INDEX.

*  THESE STATIONS ARE NOT NWS OR FAA STATIONS AND ARE NOT UNDER
   NWS QUALITY CONTROL.

LAZ040-048-061>063-065-066-069-251700-
SOUTHEAST LOUISIANA

CITY           SKY/WX    TMP DP  RH WIND       PRES   REMARKS
N.O. AUDUBON     N/A     56  37  48 MISG        N/A
N.O. INTL ARPT CLOUDY    55  36  48 N12       30.21R
N.O. LAKEFRONT CLOUDY    56  37  49 N15       30.20R
N.O. DOWNTOWN* FAIR      55  34  44 N12G17    30.20R
SLIDELL        CLOUDY    56  35  45 N7        30.18R
BATON ROUGE    CLOUDY    53  30  41 CALM      30.23R
BOOTHVILLE     PTSUNNY   59  42  53 N12G26    30.13S
BELLE CHASSE   CLOUDY    58  33  39 N13       30.18R
BOGALUSA*        N/A     55  36  49 N5        30.19S
NEW ROADS*     FAIR      54  32  42 CALM      30.25R
GONZALES*      FAIR      53  33  47 N5        30.22R
HAMMOND*       CLOUDY    55  30  38 CALM      30.23R
HOUMA*         CLOUDY    55  36  47 N115      30.19R
PORT FOURCHON* SUNNY     59  39  47 N18G25    30.20R

$$

LAZ041-044-053-054-251700-
SOUTHWEST LOUISIANA

CITY           SKY/WX    TMP DP  RH WIND       PRES   REMARKS
LAKE CHARLES   CLOUDY    52  35  52 NE8       30.27R
LAFAYETTE      CLOUDY    54  34  46 N9        30.25R
PATTERSON      CLOUDY    52  36  54 N7        30.25R
SALT POINT       N/A     58  35  42 VRB5      30.21R
NEW IBERIA     CLOUDY    54  35  48 N10       30.25R
CHENAULT AIRPK CLOUDY    48  36  61 N5        30.29R

$$

LAZ027-028-251700-
CENTRAL LOUISIANA

CITY           SKY/WX    TMP DP  RH WIND       PRES   REMARKS
FORT POLK      CLOUDY    49  33  53 NE5       30.27R
ALEXANDRIA INT CLOUDY    47  37  68 N5        30.27R
ALEXANDRIA     CLOUDY    48  32  53 VRB3      30.27R

$$

LAZ001-002-251700-
NORTHWEST LOUISIANA

CITY           SKY/WX    TMP DP  RH WIND       PRES   REMARKS
SHREVEPORT     PTSUNNY   50  31  48 N7        30.29R
BARKSDALE AFB  PTSUNNY   49  33  54 N7        30.30R
DTN SHREVEPORT PTSUNNY   48  32  53 N6        30.30R

$$

LAZ014-016-251700-
NORTHEAST LOUISIANA

CITY           SKY/WX    TMP DP  RH WIND       PRES   REMARKS
MONROE         CLOUDY    48  34  58 NE8       30.28S
TALLULAH       CLOUDY    48  33  56 N13       30.26R

$$




USA.gov is the U.S. government's official web portal to all federal, state and local government web resources and services.